AUA15G LSGG-LOWW

Flight info

Callsign AUA15G
Flight time 1h 18m
Altitude 36000
Route SOSAL N871 KORED DCT BERSU DCT DITON N871 DEGES DCT GAMSA/N0450F350 DCT TULSI DCT INPUL DCT NEMAL NEMAL2W
Aircraft B738/M-SDE2E3FGHIRWXY/LB1

Departure

Time 2026-05-04 06:50
Airport Geneva International Airport (LSGG)

Arrival

Time 2026-05-04 08:08
Airport Vienna International Airport (LOWW)
Time Latitude Longitude Altitude Speed Heading
2026-05-04 06:46 46.22533 6.09451 1399 ft 0 kts 134°
2026-05-04 06:48 46.22548 6.09256 1403 ft 7 kts 268°
2026-05-04 06:48 46.22550 6.09220 1405 ft 0 kts 282°
2026-05-04 06:49 46.22559 6.09187 1406 ft 8 kts 301°
2026-05-04 06:50 46.26290 6.14430 2855 ft 211 kts 48°
2026-05-04 06:51 46.27300 6.16012 3332 ft 214 kts 46°
2026-05-04 06:51 46.28336 6.17546 3836 ft 216 kts 45°
2026-05-04 06:51 46.29398 6.19086 4341 ft 218 kts 45°
2026-05-04 06:51 46.30463 6.20625 4830 ft 219 kts 46°
2026-05-04 06:52 46.31552 6.22194 5335 ft 229 kts 46°
2026-05-04 06:52 46.32738 6.23891 5836 ft 250 kts 46°
2026-05-04 06:52 46.33989 6.25675 6332 ft 253 kts 46°
2026-05-04 06:52 46.35231 6.27447 6821 ft 255 kts 46°
2026-05-04 06:53 46.36502 6.29273 7318 ft 257 kts 49°
2026-05-04 06:53 46.37436 6.31414 7806 ft 255 kts 72°
2026-05-04 06:53 46.37929 6.33898 8323 ft 256 kts 77°
2026-05-04 06:53 46.38378 6.36383 8800 ft 258 kts 77°
2026-05-04 06:54 46.38850 6.38899 9282 ft 260 kts 76°
2026-05-04 06:54 46.39343 6.41451 9792 ft 278 kts 76°
2026-05-04 06:54 46.39889 6.44221 10281 ft 288 kts 76°
2026-05-04 06:54 46.40432 6.47025 10788 ft 292 kts 77°
2026-05-04 06:55 46.40967 6.49834 11275 ft 295 kts 77°
2026-05-04 06:55 46.41515 6.52738 11759 ft 299 kts 77°
2026-05-04 06:55 46.42058 6.55645 12252 ft 312 kts 77°
2026-05-04 06:55 46.42646 6.58787 12718 ft 333 kts 77°
2026-05-04 06:56 46.43277 6.62104 13148 ft 353 kts 76°
2026-05-04 06:57 46.53689 6.84484 16240 ft 409 kts 51°
2026-05-04 06:58 46.55525 6.87645 16692 ft 412 kts 51°
2026-05-04 06:58 46.57379 6.90823 17129 ft 417 kts 50°
2026-05-04 06:58 46.59259 6.94032 17570 ft 420 kts 50°
2026-05-04 06:58 46.61156 6.97281 18014 ft 424 kts 50°
2026-05-04 06:59 46.63083 7.00593 18480 ft 429 kts 50°
2026-05-04 06:59 46.64986 7.03887 18929 ft 432 kts 51°
2026-05-04 06:59 46.66914 7.07264 19368 ft 434 kts 51°
2026-05-04 06:59 46.68853 7.10664 19835 ft 436 kts 51°
2026-05-04 07:01 46.82098 7.35612 23050 ft 457 kts 52°
2026-05-04 07:01 46.84044 7.39254 23512 ft 460 kts 52°
2026-05-04 07:02 46.86010 7.42908 23976 ft 462 kts 52°
2026-05-04 07:02 46.87990 7.46591 24444 ft 465 kts 52°
2026-05-04 07:02 46.90010 7.50344 24917 ft 469 kts 52°
2026-05-04 07:02 46.92036 7.54101 25394 ft 473 kts 52°
2026-05-04 07:03 46.94072 7.57869 25866 ft 477 kts 52°
2026-05-04 07:03 46.96124 7.61675 26348 ft 481 kts 52°
2026-05-04 07:03 46.98190 7.65506 26831 ft 485 kts 52°
2026-05-04 07:03 47.00293 7.69394 27318 ft 489 kts 52°
2026-05-04 07:04 47.02394 7.73288 27806 ft 492 kts 52°
2026-05-04 07:04 47.04513 7.77235 28295 ft 496 kts 52°
2026-05-04 07:04 47.06632 7.81207 28786 ft 499 kts 53°
2026-05-04 07:04 47.08770 7.85215 29275 ft 503 kts 52°
2026-05-04 07:05 47.10952 7.89283 29772 ft 506 kts 52°
2026-05-04 07:05 47.13089 7.93376 30264 ft 508 kts 55°
2026-05-04 07:05 47.15028 7.97652 30758 ft 510 kts 58°
2026-05-04 07:05 47.16914 8.02101 31255 ft 512 kts 59°
2026-05-04 07:06 47.20694 8.10920 32239 ft 516 kts 58°
2026-05-04 07:06 47.22592 8.15363 32733 ft 517 kts 59°
2026-05-04 07:06 47.24502 8.19857 33233 ft 518 kts 59°
2026-05-04 07:07 47.26405 8.24372 33732 ft 518 kts 60°
2026-05-04 07:08 47.33322 8.58112 35187 ft 479 kts 80°
2026-05-04 07:09 47.33969 8.62946 35281 ft 484 kts 80°
2026-05-04 07:09 47.35230 8.72634 35459 ft 479 kts 81°
2026-05-04 07:10 47.36484 8.82228 35631 ft 479 kts 81°
2026-05-04 07:12 47.40977 9.20578 36717 ft 475 kts 90°
2026-05-04 07:12 47.41000 9.30357 36715 ft 475 kts 91°
2026-05-04 07:13 47.40988 9.39968 36715 ft 468 kts 92°
2026-05-04 07:13 47.40940 9.49562 36716 ft 473 kts 91°
2026-05-04 07:14 47.41677 9.69012 36229 ft 480 kts 80°
2026-05-04 07:14 47.42312 9.73779 36098 ft 481 kts 80°
2026-05-04 07:15 47.43621 9.83343 36469 ft 471 kts 79°
2026-05-04 07:15 47.44285 9.88123 36635 ft 476 kts 79°
2026-05-04 07:15 47.44953 9.92897 36653 ft 484 kts 79°
2026-05-04 07:16 47.46331 10.02626 36689 ft 482 kts 79°
2026-05-04 07:16 47.47692 10.12238 36637 ft 478 kts 79°
2026-05-04 07:17 47.49036 10.21746 36609 ft 468 kts 78°
2026-05-04 07:17 47.50352 10.31048 36583 ft 465 kts 78°
2026-05-04 07:18 47.51675 10.40469 36560 ft 472 kts 78°
2026-05-04 07:18 47.52995 10.49915 36527 ft 469 kts 79°
2026-05-04 07:19 47.54303 10.59347 36496 ft 467 kts 78°
2026-05-04 07:19 47.55590 10.68701 36470 ft 468 kts 79°
2026-05-04 07:20 47.56876 10.78100 36444 ft 470 kts 79°
2026-05-04 07:20 47.58165 10.87555 36418 ft 469 kts 79°
2026-05-04 07:22 47.63224 11.25291 36318 ft 469 kts 79°
2026-05-04 07:23 47.64468 11.34744 36297 ft 469 kts 79°
2026-05-04 07:23 47.65700 11.44191 36274 ft 468 kts 79°
2026-05-04 07:24 47.66926 11.53643 36249 ft 468 kts 79°
2026-05-04 07:24 47.68141 11.63066 36226 ft 468 kts 79°
2026-05-04 07:26 47.73429 12.00838 36135 ft 469 kts 77°
2026-05-04 07:27 47.74820 12.10218 36108 ft 468 kts 77°
2026-05-04 07:27 47.76204 12.19653 36101 ft 468 kts 77°
2026-05-04 07:28 47.77576 12.29076 36097 ft 468 kts 77°
2026-05-04 07:28 47.78934 12.38450 36096 ft 467 kts 77°
2026-05-04 07:29 47.80289 12.47850 36093 ft 466 kts 77°
2026-05-04 07:29 47.81642 12.57283 36089 ft 466 kts 77°
2026-05-04 07:30 47.82984 12.66704 36090 ft 468 kts 78°
2026-05-04 07:30 47.84297 12.76127 36088 ft 467 kts 79°
2026-05-04 07:31 47.85296 12.85601 36085 ft 466 kts 81°
2026-05-04 07:33 47.89167 13.23498 36019 ft 458 kts 80°
2026-05-04 07:33 47.89642 13.28184 35495 ft 460 kts 80°
2026-05-04 07:33 47.90114 13.32893 34956 ft 462 kts 80°
2026-05-04 07:34 47.90581 13.37573 34389 ft 464 kts 80°
2026-05-04 07:34 47.91058 13.42314 33781 ft 466 kts 80°
2026-05-04 07:34 47.91506 13.47119 33166 ft 468 kts 83°
2026-05-04 07:34 47.91706 13.51956 32560 ft 469 kts 88°
2026-05-04 07:35 47.91723 13.56754 31932 ft 470 kts 89°
2026-05-04 07:35 47.91713 13.61580 31225 ft 463 kts 89°
2026-05-04 07:35 47.91702 13.66311 30704 ft 452 kts 90°
2026-05-04 07:35 47.91690 13.70954 30190 ft 443 kts 90°
2026-05-04 07:36 47.91674 13.75423 29687 ft 434 kts 90°
2026-05-04 07:36 47.91654 13.79855 29185 ft 425 kts 90°
2026-05-04 07:38 47.91471 14.08809 25654 ft 379 kts 91°
2026-05-04 07:38 47.91439 14.12699 25159 ft 374 kts 91°
2026-05-04 07:38 47.91403 14.16538 24658 ft 369 kts 91°
2026-05-04 07:38 47.91364 14.20302 24159 ft 365 kts 91°
2026-05-04 07:39 47.91323 14.24052 23661 ft 363 kts 91°
2026-05-04 07:39 47.91283 14.27805 23169 ft 362 kts 91°
2026-05-04 07:39 47.91250 14.31479 22686 ft 359 kts 91°
2026-05-04 07:39 47.91217 14.35175 22202 ft 357 kts 91°
2026-05-04 07:40 47.91181 14.38850 21720 ft 354 kts 91°
2026-05-04 07:40 47.91143 14.42521 21229 ft 352 kts 91°
2026-05-04 07:40 47.91103 14.46131 20748 ft 349 kts 91°
2026-05-04 07:40 47.91064 14.49730 20274 ft 347 kts 92°
2026-05-04 07:41 47.91022 14.53284 19787 ft 345 kts 92°
2026-05-04 07:41 47.90981 14.56823 19320 ft 343 kts 92°
2026-05-04 07:41 47.90935 14.60387 18838 ft 341 kts 92°
2026-05-04 07:41 47.90888 14.63878 18360 ft 338 kts 93°
2026-05-04 07:42 47.90843 14.67326 17885 ft 336 kts 94°
2026-05-04 07:42 47.90789 14.70774 17402 ft 333 kts 94°
2026-05-04 07:42 47.90731 14.74200 16920 ft 330 kts 94°
2026-05-04 07:42 47.90679 14.77622 16433 ft 327 kts 94°
2026-05-04 07:43 47.90630 14.80962 15958 ft 325 kts 94°
2026-05-04 07:43 47.90580 14.84289 15485 ft 322 kts 94°
2026-05-04 07:43 47.90528 14.87613 15013 ft 320 kts 94°
2026-05-04 07:43 47.90476 14.90894 14529 ft 318 kts 94°
2026-05-04 07:44 47.90421 14.94171 14045 ft 315 kts 94°
2026-05-04 07:44 47.90369 14.97416 13576 ft 313 kts 94°
2026-05-04 07:44 47.90318 15.00641 13106 ft 310 kts 94°
2026-05-04 07:44 47.90265 15.03795 12643 ft 308 kts 94°
2026-05-04 07:45 47.90205 15.06997 12171 ft 306 kts 94°
2026-05-04 07:45 47.90148 15.10112 11713 ft 304 kts 94°
2026-05-04 07:45 47.90090 15.13245 11251 ft 302 kts 94°
2026-05-04 07:45 47.90035 15.16350 10944 ft 295 kts 93°
2026-05-04 07:46 47.89982 15.19365 10927 ft 296 kts 93°
2026-05-04 07:46 47.89926 15.22466 10922 ft 300 kts 93°
2026-05-04 07:46 47.89871 15.25566 10926 ft 299 kts 93°
2026-05-04 07:46 47.89816 15.28654 10924 ft 298 kts 93°
2026-05-04 07:47 47.89759 15.31746 10922 ft 298 kts 92°
2026-05-04 07:47 47.90011 15.34792 10910 ft 303 kts 71°
2026-05-04 07:47 47.91140 15.37402 10918 ft 308 kts 42°
2026-05-04 07:49 48.02620 15.51788 10890 ft 308 kts 40°
2026-05-04 07:49 48.04270 15.53871 10886 ft 309 kts 40°
2026-05-04 07:49 48.05915 15.55946 10879 ft 308 kts 40°
2026-05-04 07:50 48.07546 15.58005 10872 ft 308 kts 40°
2026-05-04 07:50 48.09177 15.60070 10871 ft 308 kts 40°
2026-05-04 07:50 48.10803 15.62136 10873 ft 308 kts 40°
2026-05-04 07:50 48.12440 15.64215 10854 ft 308 kts 40°
2026-05-04 07:51 48.14073 15.66283 10846 ft 308 kts 41°
2026-05-04 07:51 48.15707 15.68355 10842 ft 308 kts 41°
2026-05-04 07:51 48.17325 15.70414 10842 ft 309 kts 41°
2026-05-04 07:51 48.18978 15.72520 10838 ft 309 kts 41°
2026-05-04 07:52 48.20598 15.74583 10823 ft 309 kts 41°
2026-05-04 07:52 48.22245 15.76678 10818 ft 309 kts 41°
2026-05-04 07:52 48.23880 15.78757 10817 ft 309 kts 41°
2026-05-04 07:52 48.25517 15.80845 10818 ft 310 kts 41°
2026-05-04 07:53 48.27156 15.82938 10814 ft 309 kts 41°
2026-05-04 07:54 48.37104 15.97116 9278 ft 263 kts 57°
2026-05-04 07:55 48.38108 15.99380 9040 ft 256 kts 57°
2026-05-04 07:55 48.39077 16.01576 8793 ft 251 kts 57°
2026-05-04 07:55 48.40031 16.03745 8554 ft 246 kts 57°
2026-05-04 07:55 48.40968 16.05878 8298 ft 241 kts 57°
2026-05-04 07:56 48.41871 16.07947 8051 ft 237 kts 57°
2026-05-04 07:56 48.42773 16.10020 7820 ft 233 kts 57°
2026-05-04 07:56 48.43641 16.12028 7583 ft 229 kts 57°
2026-05-04 07:56 48.44490 16.14011 7339 ft 226 kts 57°
2026-05-04 07:57 48.45335 16.16004 7095 ft 223 kts 57°
2026-05-04 07:57 48.46160 16.17968 6854 ft 223 kts 57°
2026-05-04 07:57 48.46989 16.19962 6602 ft 224 kts 57°
2026-05-04 07:57 48.47798 16.21927 6354 ft 221 kts 57°
2026-05-04 07:58 48.48597 16.23871 6109 ft 220 kts 57°
2026-05-04 07:58 48.49410 16.25834 5918 ft 218 kts 57°
2026-05-04 07:58 48.50209 16.27737 5682 ft 217 kts 57°
2026-05-04 07:58 48.50920 16.29748 5419 ft 215 kts 75°
2026-05-04 07:59 48.50968 16.31932 5175 ft 206 kts 103°
2026-05-04 07:59 48.50655 16.34001 4950 ft 200 kts 105°
2026-05-04 07:59 48.50338 16.35971 4918 ft 191 kts 105°
2026-05-04 07:59 48.50032 16.37946 4937 ft 196 kts 105°
2026-05-04 08:00 48.49723 16.39969 4924 ft 195 kts 107°
2026-05-04 08:00 48.49137 16.41737 4911 ft 190 kts 137°
2026-05-04 08:00 48.48002 16.42694 4935 ft 189 kts 165°
2026-05-04 08:02 48.39179 16.46272 4927 ft 186 kts 165°
2026-05-04 08:02 48.37925 16.46808 4923 ft 186 kts 165°
2026-05-04 08:02 48.36674 16.47342 4921 ft 186 kts 165°
2026-05-04 08:03 48.35437 16.47870 4920 ft 187 kts 165°
2026-05-04 08:03 48.34187 16.48403 4921 ft 187 kts 165°
2026-05-04 08:03 48.32923 16.48940 4808 ft 191 kts 164°
2026-05-04 08:03 48.31650 16.49482 4563 ft 186 kts 163°
2026-05-04 08:04 48.30395 16.50017 4354 ft 190 kts 163°
2026-05-04 08:04 48.29151 16.50545 4071 ft 183 kts 163°
2026-05-04 08:04 48.27992 16.51038 3867 ft 163 kts 163°
2026-05-04 08:04 48.26919 16.51494 3625 ft 159 kts 162°
2026-05-04 08:05 48.25863 16.51943 3422 ft 158 kts 162°
2026-05-04 08:05 48.24800 16.52394 3202 ft 158 kts 162°
2026-05-04 08:05 48.23755 16.52838 2993 ft 158 kts 162°
2026-05-04 08:05 48.22689 16.53290 2773 ft 159 kts 162°
2026-05-04 08:06 48.21618 16.53744 2554 ft 161 kts 162°
2026-05-04 08:06 48.20530 16.54205 2331 ft 162 kts 163°
2026-05-04 08:06 48.19461 16.54658 2107 ft 158 kts 162°
2026-05-04 08:06 48.18417 16.55095 1904 ft 155 kts 160°
2026-05-04 08:08 48.11311 16.58093 593 ft 128 kts 162°
2026-05-04 08:08 48.10716 16.58360 598 ft 49 kts 168°
2026-05-04 08:10 48.10530 16.58153 602 ft 16 kts 338°
2026-05-04 08:11 48.10635 16.58105 601 ft 15 kts 344°